Flag for Germany Weather past 2 weeks in Kiel, Schleswig-Holstein, Germany

Now
68 °F

Sunny.


Feels Like: 68 °F
Forecast: 56 / 69 °F
Wind: 14 mph from East

Location: Kiel / Holtenau Civilian

Current Time: Sep 17, 2014 at 2:48:39 PM

Latest Report: Sep 17, 2014 at 2:20 PM


Visibility: 10 mi

Pressure: 30.07 "Hg

Humidity: 60%

Dew point: 54 °F

Location of KielLocation

Historic Weather in Kiel — Graph

°F

Kiel temperature yesterday

Maximum temperature yesterday: 68 °F (at 1:50 PM)
Minimum temperature yesterday: 61 °F (at 7:50 AM)
Average temperature yesterday: 66 °F

Past Weeks' High & Low Weather Summary

 TemperatureHumidityPressure
High77 °F (Sep 6, 2:20 PM)100% (Sep 7, 8:20 AM)30.39 "Hg (Sep 7, 8:20 AM)
Low55 °F (Sep 8, 8:20 AM)57% (Sep 6, 1:20 PM)29.86 "Hg (Sep 6, 4:20 PM)
Average64 °F80%30.11 "Hg
* Reported Sep 2 1:20 PM — Sep 17 1:20 PM, Kiel, Weather by CustomWeather, © 2014

Note: Actual official high and low records may vary slightly from our data, if they occured in-between our weather recording intervals... More about our weather records

Advertising

Kiel weather history for previous 24 hours

 ConditionsComfort  
Time TempWeatherWind HumidityBarometerVisibility
1:20 PM
Sep 17
66 °FSunny.14 mph73%30.09 "Hg10 mi
12:50 PM66 °FSunny.14 mph73%30.09 "Hg10 mi
12:20 PM68 °FSunny.14 mph73%30.09 "Hg10 mi
11:50 AM66 °FSunny.9 mph73%30.09 "Hg10 mi
11:20 AM66 °FSunny.12 mph78%30.09 "Hg10 mi
10:50 AM66 °FSunny.9 mph78%30.09 "Hg10 mi
10:20 AM64 °FSunny.7 mph78%30.09 "Hg10 mi
9:50 AM64 °FSunny.9 mph78%30.09 "Hg10 mi
9:20 AM63 °FSunny.9 mph83%30.09 "Hg10 mi
8:50 AM61 °FSunny.8 mph88%30.09 "Hg10 mi
8:20 AM59 °FPassing clouds.6 mph94%30.09 "HgN/A
7:50 AM59 °FPassing clouds.5 mph88%30.09 "HgN/A
7:20 AM59 °FPassing clouds.6 mph94%30.09 "HgN/A
6:50 AM57 °FClear.7 mph94%30.09 "Hg10 mi
6:20 AM57 °FClear.7 mph94%30.09 "Hg10 mi
5:50 PM
Sep 16
66 °FSunny.9 mph78%30.09 "Hg10 mi
5:20 PM66 °FSunny.9 mph78%30.09 "Hg10 mi
4:50 PM66 °FSunny.9 mph78%30.09 "Hg10 mi
4:20 PM68 °FSunny.9 mph78%30.09 "Hg10 mi
3:50 PM68 °FSunny.9 mph78%30.09 "Hg10 mi
3:20 PM68 °FSunny.9 mph78%30.12 "Hg10 mi
2:50 PM68 °FSunny.9 mph78%30.12 "Hg10 mi
2:20 PM68 °FSunny.9 mph78%30.12 "Hg10 mi
Weather by CustomWeather, © 2014

See weather overviewHow to use our weather pages